STARLINK-4674, 53591

Orbit data source: Space-Track

STARLINK-4674, 53591 is a payload satellite owned by SpaceX/Seattle (US) in LEO that was launched on Sun, 28 Aug 2022 UTC via an FALCON 9 launch vehicle from the Air Force Eastern Test Range (AFETR). Payload-class satellites include a variety of spacecraft equipped with specific instruments for various scientific and technological missions. These include communications satellites like Starlink; space stations such as the ISS; scientific satellites like the Hubble; Earth observation satellites from companies like Planet Labs, Umbra, and HawkEye 360; GPS; miniature CubeSats for education and research; and military/defense satellites.

Loading next visibility...
Identifier
53591, 2022-104D
Orbit
LEO
Country
Flag of USUS
Related business
Manufacturer
SpaceX/Seattle
Mission
Operational Commercial Communications
Bus & Motor
STARLINK, Unknown motor
Mass
300 kg wet, ~290 kg dry
Launch date (UTC)
2022-08-28 (3 years ago)
Launch vehicle
FALCON 9
Launch site
Air Force Eastern Test Range (AFETR)
Object type
Payload
Rocket body
Debris
Shape & HBR
Box + 1 Pan, 10.1 m
Radar Cross Section
13.562 m², Large (>1 m²)

Expand to show TLE details & history
Last TLE update: 8 hours ago

TLE from 8 hours ago
0 STARLINK-4674
1 53591U 22104D   26036.96869432  .00000192  00000-0  30154-4 0  9995
2 53591  53.2195  26.6885 0001577  88.6903 271.4270 15.08838804191176
Epoch: 2026-02-05T23:14Z
TLE epoch observation values (Epoch: 2026-02-05T23:14:55.189Z)
Latitude
Longitude
-98.15476°
Altitude
540.618 km
Speed
7.593 km/s
True Right ascension
01h 46m 45s
True Declination
0° 00' 00"
Sunlit
Object was in daylight at epoch
Visualization orbit readout
Latitude
Unknown
Longitude
Unknown
Altitude
Unknown
Speed
Unknown
Apparent Right ascension
Unknown
Apparent Declination
Unknown
Sunlit
N/A
Visualization observer readout
Local Sidereal Time
09:12:49
Azimuth
Unknown
Elevation
Unknown
Doppler factor
Unknown
Orbital elements
Apogee altitude
541.083 km
Perigee altitude
538.901 km
Semi-major axis
6,918.129 km
Eccentricity
0.00016
Inclination
53.2195°
RAAN
26.6885°
Arg. of periapsis
88.6903°
True anomaly
271.40893°
Mean anomaly
271.427°
Eccentric anomaly
271.41797°
Mean motion
3.7719 °/min
Orbital period
95.44 mins
BSTAR
0.000030154
Loading maneuver chart data...
Computing Atmospheric mass density...
Loading historical data...
Loading historical data...
Loading historical data...
Loading historical data...
Loading historical data...
Loading historical data...
Loading historical data...

Documentation

Showing up to 5 results
|